Flood From: 22-02-2018 06:00 Until: 23-02-2018 06:00 warning for: Flood Level: Yellow info button

Although rather usual in this region, locally or potentially dangerous phenomena are expected. (such as local winds, summer thunderstorms, rising streams or high waves) Be aware and pay attention to the latest weather updates, especially if you carry out activities exposed to weather or close to a stream or shoreline. 


Meteo18 Weather Cam more information Meteo18 Weather Cam


Thunder radar more information blitzortung!


Rain radar more information rain snow radar


Visit our other weather sites:

Template documentation
and downloads

And another site



Weather Underground History page Text

Daily Summary for January 21, 2018 Units:  Metric    English   Both
« Previous Day
Next Day »
Daily Weekly Monthly Yearly Custom
  High: Low: Average:
Temperature: -17.8 °C -14 °C -12.9 °C
Dew Point: -17.8 °C -14.4 °C -13.6 °C
Humidity: Humidity % 81 % 92 %
Wind Speed: 0 km/h 0 km/h 15.8 km/h
Wind Gust: 0 km/h - -
Wind:- - WSW
Pressure: 0 hPa 34178.3 hPa -
Precipitation: 50.8 mm    
Historical Graphs
 
 
Tabular Data for January 21, 2018
Time Temperature Dew Point Pressure Wind Wind Speed Wind Gust Humidity Rainfall Rate (Hourly)
-17.8 °C -17.8 °C 0 hPa Calm     Humidity % 0 mm
00:04 -12.2 °C -13.7 °C 34178.3 hPa WNW 36.5 km/h 54.4 km/h 83 % 0 mm
00:10 -12.2 °C -13.7 °C 34178.3 hPa West 31.4 km/h 51.8 km/h 83 % 0 mm
00:16 -12.3 °C -13.9 °C 34188.4 hPa West 38.8 km/h 57 km/h 82 % 0 mm
00:22 -12.3 °C -13.9 °C 34188.4 hPa West 15.6 km/h 44.1 km/h 82 % 0 mm
00:28 -12.3 °C -13.9 °C 34198.6 hPa West 28.5 km/h 54.4 km/h 82 % 0 mm
00:34 -12.4 °C -13.9 °C 34198.6 hPa WSW 33.6 km/h 33.6 km/h 83 % 0 mm
00:40 -12.4 °C -13.9 °C 34212.1 hPa West 23 km/h 36.2 km/h 83 % 0 mm
00:46 -12.5 °C -14 °C 34212.1 hPa West 20.9 km/h 46.7 km/h 83 % 0 mm
00:52 -12.6 °C -14.1 °C 34212.1 hPa West 31.4 km/h 44.1 km/h 83 % 0 mm
00:58 -12.6 °C -14.2 °C 34212.1 hPa WSW 33.6 km/h 38.8 km/h 82 % 0 mm
01:04 -12.6 °C -14.2 °C 34222.3 hPa WNW 15.6 km/h 33.6 km/h 82 % 0 mm
01:10 -12.6 °C -14.3 °C 34222.3 hPa WNW 36.5 km/h 44.1 km/h 81 % 0 mm
01:16 -12.6 °C -14.2 °C 34235.8 hPa WNW 7.6 km/h 31.1 km/h 82 % 0 mm
01:22 -12.7 °C -14.3 °C 34235.8 hPa WSW 31.4 km/h 46.7 km/h 82 % 0 mm
01:28 -12.6 °C -14.2 °C 34246 hPa WNW 28.5 km/h 46.7 km/h 82 % 0 mm
01:34 -12.7 °C -14.3 °C 34246 hPa WNW 17.9 km/h 23.3 km/h 82 % 0 mm
01:40 -12.7 °C -14.2 °C 34246 hPa WNW 20.9 km/h 36.2 km/h 83 % 0 mm
01:46 -12.7 °C -14.2 °C 34256.2 hPa West 12.7 km/h 31.1 km/h 83 % 0 mm
01:52 -12.7 °C -14.2 °C 34256.2 hPa WSW 38.8 km/h 38.8 km/h 84 % 0 mm
01:58 -12.7 °C -14.2 °C 34256.2 hPa West 20.9 km/h 46.7 km/h 84 % 0 mm
02:04 -12.7 °C -14.1 °C 34269.7 hPa WNW 28.5 km/h 36.2 km/h 85 % 0 mm
02:10 -12.7 °C -14.1 °C 34269.7 hPa WSW 17.9 km/h 31.1 km/h 85 % 0 mm
02:16 -12.7 °C -14.1 °C 34269.7 hPa West 15.6 km/h 38.8 km/h 85 % 0 mm
02:22 -12.7 °C -14.1 °C 34279.9 hPa West 36.5 km/h 38.8 km/h 85 % 0 mm
02:28 -12.8 °C -14.1 °C 34279.9 hPa NW 36.5 km/h 49.2 km/h 85 % 0 mm
02:34 -12.8 °C -14 °C 34279.9 hPa WSW 20.9 km/h 38.8 km/h 86 % 0 mm
02:40 -12.8 °C -14 °C 34293.4 hPa WNW 31.4 km/h 49.2 km/h 86 % 0 mm
02:46 -12.8 °C -14.1 °C 34293.4 hPa WNW 23 km/h 46.7 km/h 85 % 0 mm
02:52 -12.8 °C -14.1 °C 34303.6 hPa WNW 28.5 km/h 28.5 km/h 85 % 0 mm
02:58 -12.8 °C -14.2 °C 34303.6 hPa WNW 33.6 km/h 72.6 km/h 85 % 0 mm
03:04 -12.9 °C -14.2 °C 34313.7 hPa West 31.4 km/h 41.4 km/h 85 % 0 mm
03:10 -12.8 °C -14.2 °C 34313.7 hPa West 23 km/h 51.8 km/h 85 % 0 mm
03:17 -12.8 °C -14.2 °C 34313.7 hPa West 28.5 km/h 41.4 km/h 85 % 0 mm
03:23 -12.9 °C -14.2 °C 34313.7 hPa WNW 36.5 km/h 46.7 km/h 85 % 0 mm
03:29 -12.9 °C -14.2 °C 34313.7 hPa West 28.5 km/h 41.4 km/h 85 % 0 mm
03:35 -12.9 °C -14.3 °C 34313.7 hPa WNW 15.6 km/h 23.3 km/h 85 % 0 mm
03:41 -12.9 °C -14.3 °C 34313.7 hPa WNW 20.9 km/h 28.5 km/h 85 % 0 mm
03:47 -12.9 °C -14.4 °C 34327.3 hPa West 20.9 km/h 36.2 km/h 84 % 0 mm
03:53 -12.9 °C -14.4 °C 34327.3 hPa WNW 5.1 km/h 28.5 km/h 84 % 0 mm
03:59 -12.9 °C -14.4 °C 34327.3 hPa WNW 15.6 km/h 38.8 km/h 84 % 0 mm
04:05 -12.9 °C -14.4 °C 34327.3 hPa WSW 23 km/h 25.9 km/h 84 % 0 mm
04:11 -13 °C -14.4 °C 34337.4 hPa WSW 17.9 km/h 33.6 km/h 84 % 0 mm
04:17 -13 °C -14.4 °C 34337.4 hPa WNW 17.9 km/h 51.8 km/h 84 % 0 mm
04:23 -13 °C -14.4 °C 34337.4 hPa WNW 23 km/h 31.1 km/h 84 % 0 mm
04:29 -13 °C -14.4 °C 34347.6 hPa NW 31.4 km/h 31.4 km/h 84 % 0 mm
04:35 -13 °C -14.4 °C 34347.6 hPa West 2.3 km/h 25.9 km/h 84 % 0 mm
04:41 -13 °C -14.4 °C 34347.6 hPa NNW 7.6 km/h 44.1 km/h 84 % 0 mm
04:47 -13.1 °C -14.4 °C 34347.6 hPa West 15.6 km/h 20.8 km/h 85 % 0 mm
04:53 -13.1 °C -14.4 °C 34361.1 hPa WNW 23 km/h 23.3 km/h 85 % 0 mm
04:59 -13.2 °C -14.4 °C 34361.1 hPa West 17.9 km/h 28.5 km/h 86 % 0 mm
05:05 -13.2 °C -14.4 °C 34361.1 hPa West 2.3 km/h 18.2 km/h 86 % 0 mm
05:11 -13.3 °C -14.4 °C 34371.3 hPa WNW 23 km/h 23.3 km/h 87 % 0 mm
05:17 -13.3 °C -14.4 °C 34371.3 hPa West 7.6 km/h 28.5 km/h 88 % 0 mm
05:23 -13.4 °C -14.3 °C 34371.3 hPa WNW 20.9 km/h 20.9 km/h 89 % 0 mm
05:29 -13.4 °C -14.3 °C 34371.3 hPa WNW 12.7 km/h 25.9 km/h 89 % 0 mm
05:35 -13.4 °C -14.4 °C 34384.8 hPa WNW 17.9 km/h 20.8 km/h 89 % 0 mm
05:41 -13.5 °C -14.3 °C 34384.8 hPa WSW 7.6 km/h 18.2 km/h 90 % 0 mm
05:47 -13.4 °C -14.3 °C 34384.8 hPa West 15.6 km/h 23.3 km/h 90 % 0 mm
05:53 -13.4 °C -14.4 °C 34384.8 hPa WNW 15.6 km/h 25.9 km/h 89 % 0 mm
05:59 -13.4 °C -14.3 °C 34384.8 hPa NW 12.7 km/h 25.9 km/h 89 % 0 mm
06:05 -13.4 °C -14.4 °C 34384.8 hPa WNW 10.3 km/h 25.9 km/h 88 % 0 mm
06:11 -13.4 °C -14.4 °C 34384.8 hPa WSW 5.1 km/h 18.2 km/h 88 % 0 mm
06:17 -13.4 °C -14.4 °C 34384.8 hPa NW 5.1 km/h 12.9 km/h 88 % 0 mm
06:23 -13.4 °C -14.4 °C 34395 hPa WNW 12.7 km/h 15.6 km/h 89 % 0 mm
06:29 -13.4 °C -14.4 °C 34405.1 hPa WNW 15.6 km/h 18.2 km/h 89 % 0 mm
06:35 -13.4 °C -14.3 °C 34405.1 hPa NNW 5.1 km/h 20.8 km/h 89 % 0 mm
06:41 -13.4 °C -14.3 °C 34418.7 hPa WNW 2.3 km/h 18.2 km/h 89 % 0 mm
06:47 -13.4 °C -14.4 °C 34405.1 hPa WNW 5.1 km/h 15.6 km/h 89 % 0 mm
06:53 -13.4 °C -14.3 °C 34418.7 hPa NW 10.3 km/h 12.9 km/h 89 % 0 mm
07:05 -13.4 °C -14.4 °C 34418.7 hPa NW 7.6 km/h 10.3 km/h 89 % 0 mm
07:11 -13.4 °C -14.3 °C 34418.7 hPa West 2.3 km/h 12.9 km/h 90 % 0 mm
07:17 -13.5 °C -14.3 °C 34418.7 hPa WNW 5.1 km/h 7.7 km/h 90 % 0 mm
07:23 -13.5 °C -14.3 °C 34428.8 hPa NW 7.6 km/h 10.3 km/h 90 % 0 mm
07:29 -13.5 °C -14.3 °C 34428.8 hPa WNW 5.1 km/h 7.7 km/h 90 % 0 mm
07:35 -13.5 °C -14.3 °C 34428.8 hPa WNW 2.3 km/h 5.1 km/h 90 % 0 mm
07:41 -13.6 °C -14.4 °C 34442.4 hPa West 2.3 km/h 7.7 km/h 90 % 0 mm
07:47 -13.6 °C -14.4 °C 34428.8 hPa West 2.3 km/h 7.7 km/h 90 % 0 mm
08:05 -13.6 °C -14.4 °C 34452.6 hPa West 5.1 km/h 10.3 km/h 90 % 0 mm
08:11 -13.6 °C -14.4 °C 34452.6 hPa WNW 5.1 km/h 10.3 km/h 90 % 0 mm
08:17 -13.6 °C -14.4 °C 34452.6 hPa Calm   5.1 km/h 91 % 0 mm
08:29 -13.6 °C -14.4 °C 34452.6 hPa WSW 2.3 km/h 2.6 km/h 91 % 0 mm
08:35 -13.7 °C -14.4 °C 34452.6 hPa West 10.3 km/h 12.9 km/h 91 % 0 mm
08:41 -13.7 °C -14.4 °C 34462.7 hPa West 5.1 km/h 7.7 km/h 91 % 0 mm
08:47 -13.7 °C -14.4 °C 34462.7 hPa Calm   5.1 km/h 92 % 0 mm
08:53 -13.7 °C -14.4 °C 34462.7 hPa Calm   2.6 km/h 92 % 0 mm
08:59 -13.8 °C -14.4 °C 34462.7 hPa Calm   2.6 km/h 93 % 0 mm
09:17 -13.8 °C -14.3 °C 34462.7 hPa Calm     94 % 0 mm
09:23 -13.8 °C -14.3 °C 34462.7 hPa Calm     94 % 0 mm
09:29 -13.8 °C -14.3 °C 34476.3 hPa SW 2.6 km/h 2.6 km/h 94 % 0 mm
09:41 -13.8 °C -14.3 °C 34476.3 hPa SE 2.3 km/h 2.6 km/h 94 % 7.62 mm
09:47 -13.9 °C -14.4 °C 34476.3 hPa Calm   2.6 km/h 94 % 7.62 mm
09:53 -13.9 °C -14.3 °C 34486.4 hPa Calm     95 % 12.7 mm
10:05 -13.9 °C -14.3 °C 34496.6 hPa Calm   2.6 km/h 95 % 12.7 mm
10:12 -13.8 °C -14.2 °C 34496.6 hPa Calm   2.6 km/h 95 % 12.7 mm
10:18 -13.9 °C -14.3 °C 34486.4 hPa Calm   2.6 km/h 95 % 12.7 mm
10:24 -13.9 °C -14.3 °C 34486.4 hPa Calm   2.6 km/h 95 % 12.7 mm
10:30 -13.9 °C -14.3 °C 34496.6 hPa East 2.3 km/h 5.1 km/h 95 % 12.7 mm
10:36 -14 °C -14.4 °C 34496.6 hPa Calm   5.1 km/h 95 % 12.7 mm
10:42 -14 °C -14.3 °C 34486.4 hPa East 2.3 km/h 5.1 km/h 96 % 12.7 mm
10:48 -14 °C -14.3 °C 34496.6 hPa Calm   5.1 km/h 96 % 12.7 mm
10:54 -13.9 °C -14.3 °C 34496.6 hPa ENE 2.3 km/h 2.6 km/h 96 % 7.62 mm
11:00 -13.9 °C -14.3 °C 34496.6 hPa Calm     96 % 7.62 mm
11:06 -13.9 °C -14.3 °C 34496.6 hPa Calm   5.1 km/h 96 % 7.62 mm
11:12 -13.9 °C -14.3 °C 34496.6 hPa Calm   2.6 km/h 96 % 0 mm
11:18 -13.9 °C -14.3 °C 34496.6 hPa Calm     96 % 7.62 mm
11:24 -13.9 °C -14.3 °C 34496.6 hPa Calm     96 % 7.62 mm
11:30 -13.9 °C -14.3 °C 34496.6 hPa SE 5.1 km/h 5.1 km/h 96 % 7.62 mm
11:36 -14 °C -14.3 °C 34496.6 hPa ESE 2.3 km/h 5.1 km/h 96 % 7.62 mm
11:42 -14 °C -14.3 °C 34496.6 hPa SSE 5.1 km/h 7.7 km/h 96 % 7.62 mm
11:48 -14 °C -14.3 °C 34496.6 hPa East 2.3 km/h 5.1 km/h 96 % 7.62 mm
11:54 -13.9 °C -14.3 °C 34486.4 hPa SSW 10.3 km/h 12.9 km/h 96 % 7.62 mm
12:00 -13.8 °C -14.1 °C 34496.6 hPa SW 5.1 km/h 10.3 km/h 97 % 7.62 mm
12:06 -13.8 °C -14.1 °C 34496.6 hPa SW 2.3 km/h 5.1 km/h 96 % 7.62 mm
12:12 -13.7 °C -14.1 °C 34496.6 hPa SW 2.3 km/h 7.7 km/h 96 % 7.62 mm
12:19 -13.7 °C -14.1 °C 34486.4 hPa WSW 10.3 km/h 12.9 km/h 96 % 0 mm
12:25 -13.7 °C -14.1 °C 34486.4 hPa SSW 5.1 km/h 15.6 km/h 96 % 0 mm
12:31 -13.7 °C -14 °C 34486.4 hPa WSW 2.3 km/h 12.9 km/h 96 % 0 mm
12:37 -13.7 °C -14 °C 34476.3 hPa SW 10.3 km/h 15.6 km/h 96 % 0 mm
12:43 -13.7 °C -14 °C 34476.3 hPa WSW 5.1 km/h 12.9 km/h 96 % 7.62 mm
12:49 -13.7 °C -14 °C 34476.3 hPa SSW 12.7 km/h 15.6 km/h 96 % 7.62 mm
12:55 -13.6 °C -13.9 °C 34476.3 hPa SW 10.3 km/h 18.2 km/h 96 % 7.62 mm
13:01 -13.6 °C -13.9 °C 34476.3 hPa SW 12.7 km/h 18.2 km/h 96 % 7.62 mm
13:07 -13.6 °C -13.9 °C 34476.3 hPa SW 10.3 km/h 12.9 km/h 96 % 7.62 mm
13:13 -13.6 °C -13.9 °C 34476.3 hPa WSW 5.1 km/h 25.9 km/h 96 % 7.62 mm
13:19 -13.6 °C -13.9 °C 34462.7 hPa SSW 15.6 km/h 18.2 km/h 96 % 7.62 mm
13:25 -13.6 °C -13.9 °C 34462.7 hPa WSW 17.9 km/h 23.3 km/h 96 % 7.62 mm
13:31 -13.5 °C -13.8 °C 34462.7 hPa WSW 7.6 km/h 20.8 km/h 96 % 7.62 mm
13:37 -13.5 °C -13.8 °C 34462.7 hPa WSW 20.9 km/h 20.9 km/h 96 % 7.62 mm
13:43 -13.5 °C -13.8 °C 34462.7 hPa SW 10.3 km/h 23.3 km/h 96 % 0 mm
13:49 -13.5 °C -13.8 °C 34462.7 hPa WSW 10.3 km/h 25.9 km/h 96 % 0 mm
13:55 -13.5 °C -13.8 °C 34462.7 hPa SW 7.6 km/h 12.9 km/h 96 % 0 mm
14:01 -13.5 °C -13.8 °C 34462.7 hPa SW 12.7 km/h 20.8 km/h 96 % 0 mm
14:07 -13.5 °C -13.8 °C 34462.7 hPa West 10.3 km/h 12.9 km/h 96 % 0 mm
14:13 -13.5 °C -13.8 °C 34452.6 hPa WSW 7.6 km/h 23.3 km/h 96 % 0 mm
14:19 -13.5 °C -13.8 °C 34452.6 hPa WSW 5.1 km/h 18.2 km/h 96 % 0 mm
14:25 -13.5 °C -13.8 °C 34452.6 hPa SSW 5.1 km/h 28.5 km/h 96 % 0 mm
14:31 -13.5 °C -13.8 °C 34452.6 hPa SW 12.7 km/h 20.8 km/h 96 % 0 mm
14:37 -13.5 °C -13.8 °C 34452.6 hPa West 10.3 km/h 15.6 km/h 96 % 0 mm
14:43 -13.5 °C -13.8 °C 34452.6 hPa SW 18.2 km/h 18.2 km/h 96 % 7.62 mm
14:49 -13.6 °C -13.9 °C 34452.6 hPa SW 2.3 km/h 15.6 km/h 96 % 7.62 mm
14:55 -13.5 °C -13.8 °C 34452.6 hPa SSW 12.7 km/h 18.2 km/h 96 % 7.62 mm
15:01 -13.5 °C -13.8 °C 34452.6 hPa WSW 15.6 km/h 25.9 km/h 96 % 7.62 mm
15:07 -13.5 °C -13.7 °C 34452.6 hPa SW 12.7 km/h 23.3 km/h 97 % 7.62 mm
15:13 -13.5 °C -13.7 °C 34452.6 hPa SW 12.7 km/h 15.6 km/h 97 % 7.62 mm
15:19 -13.4 °C -13.7 °C 34452.6 hPa SW 7.6 km/h 15.6 km/h 97 % 7.62 mm
15:25 -13.4 °C -13.7 °C 34442.4 hPa SSW 12.7 km/h 20.8 km/h 97 % 7.62 mm
15:31 -13.4 °C -13.7 °C 34442.4 hPa SW 10.3 km/h 23.3 km/h 97 % 12.7 mm
15:37 -13.4 °C -13.7 °C 34442.4 hPa SW 17.9 km/h 25.9 km/h 97 % 12.7 mm
15:43 -13.4 °C -13.7 °C 34428.8 hPa SSW 15.6 km/h 25.9 km/h 97 % 7.62 mm
15:49 -13.4 °C -13.7 °C 34428.8 hPa SSW 17.9 km/h 20.8 km/h 97 % 7.62 mm
15:55 -13.4 °C -13.7 °C 34428.8 hPa SW 12.7 km/h 23.3 km/h 97 % 7.62 mm
16:01 -13.4 °C -13.7 °C 34428.8 hPa SSW 17.9 km/h 25.9 km/h 97 % 7.62 mm
16:07 -13.4 °C -13.7 °C 34428.8 hPa SSW 7.6 km/h 25.9 km/h 97 % 7.62 mm
16:13 -13.4 °C -13.7 °C 34428.8 hPa SSW 12.7 km/h 20.8 km/h 97 % 7.62 mm
16:19 -13.4 °C -13.7 °C 34428.8 hPa SW 17.9 km/h 25.9 km/h 97 % 7.62 mm
16:25 -13.4 °C -13.6 °C 34418.7 hPa SSW 10.3 km/h 23.3 km/h 97 % 7.62 mm
16:31 -13.4 °C -13.6 °C 34428.8 hPa SW 7.6 km/h 15.6 km/h 97 % 0 mm
16:37 -13.4 °C -13.6 °C 34418.7 hPa SW 12.7 km/h 23.3 km/h 97 % 0 mm
16:43 -13.3 °C -13.6 °C 34418.7 hPa SSW 10.3 km/h 20.8 km/h 97 % 0 mm
16:49 -13.3 °C -13.5 °C 34418.7 hPa SW 10.3 km/h 18.2 km/h 97 % 0 mm
16:55 -13.3 °C -13.5 °C 34418.7 hPa SW 7.6 km/h 12.9 km/h 97 % 0 mm
17:01 -13.3 °C -13.5 °C 34418.7 hPa SW 7.6 km/h 10.3 km/h 97 % 0 mm
17:07 -13.2 °C -13.4 °C 34418.7 hPa SW 5.1 km/h 5.1 km/h 97 % 0 mm
17:13 -13.2 °C -13.4 °C 34418.7 hPa SW 10.3 km/h 12.9 km/h 97 % 7.62 mm
17:19 -13.1 °C -13.3 °C 34418.7 hPa SW 7.6 km/h 12.9 km/h 98 % 7.62 mm
17:25 -13 °C -13.2 °C 34418.7 hPa SW 5.1 km/h 10.3 km/h 98 % 7.62 mm
17:31 -12.9 °C -13.1 °C 34418.7 hPa SW 5.1 km/h 12.9 km/h 98 % 7.62 mm
17:37 -12.9 °C -13.1 °C 34418.7 hPa WNW 2.3 km/h 7.7 km/h 98 % 7.62 mm
17:43 -12.8 °C -13 °C 34418.7 hPa SW 5.1 km/h 12.9 km/h 98 % 7.62 mm
17:49 -12.7 °C -12.8 °C 34418.7 hPa West 5.1 km/h 10.3 km/h 98 % 7.62 mm
17:55 -12.4 °C -12.6 °C 34418.7 hPa West 12.7 km/h 18.2 km/h 98 % 7.62 mm
18:01 -12.3 °C -12.5 °C 34418.7 hPa SW 7.6 km/h 28.5 km/h 98 % 7.62 mm
18:07 -12.2 °C -12.3 °C 34405.1 hPa WSW 15.6 km/h 23.3 km/h 98 % 7.62 mm
18:13 -12.1 °C -12.3 °C 34405.1 hPa West 12.7 km/h 31.1 km/h 98 % 0 mm
18:19 -12 °C -12.2 °C 34405.1 hPa West 28.5 km/h 33.6 km/h 98 % 0 mm
18:25 -11.9 °C -12.1 °C 34405.1 hPa WSW 28.5 km/h 33.6 km/h 98 % 0 mm
18:31 -11.8 °C -12.1 °C 34405.1 hPa West 26.2 km/h 33.6 km/h 97 % 0 mm
18:37 -11.8 °C -12.1 °C 34405.1 hPa West 20.9 km/h 41.4 km/h 97 % 0 mm
18:43 -11.8 °C -12.1 °C 34405.1 hPa West 17.9 km/h 31.1 km/h 97 % 0 mm
18:49 -11.7 °C -12.1 °C 34405.1 hPa West 20.9 km/h 31.1 km/h 96 % 0 mm
18:55 -11.7 °C -12.1 °C 34405.1 hPa West 10.3 km/h 28.5 km/h 96 % 0 mm
19:01 -11.7 °C -12.1 °C 34405.1 hPa West 23 km/h 36.2 km/h 96 % 0 mm
19:07 -11.7 °C -12.1 °C 34405.1 hPa WNW 20.9 km/h 28.5 km/h 96 % 0 mm
19:13 -11.7 °C -12.1 °C 34405.1 hPa West 23 km/h 38.8 km/h 96 % 0 mm
19:19 -11.7 °C -12.1 °C 34418.7 hPa West 23 km/h 44.1 km/h 96 % 0 mm
19:25 -11.7 °C -12.1 °C 34418.7 hPa WSW 23 km/h 41.4 km/h 96 % 0 mm
19:31 -11.7 °C -12.1 °C 34418.7 hPa WNW 23 km/h 36.2 km/h 96 % 0 mm
19:37 -11.7 °C -12.1 °C 34418.7 hPa West 17.9 km/h 31.1 km/h 96 % 0 mm
19:43 -11.7 °C -12.1 °C 34428.8 hPa West 17.9 km/h 33.6 km/h 96 % 0 mm
19:49 -11.7 °C -12.1 °C 34428.8 hPa West 36.5 km/h 41.4 km/h 96 % 0 mm
19:55 -11.7 °C -12.1 °C 34428.8 hPa West 28.5 km/h 36.2 km/h 96 % 0 mm
20:01 -11.7 °C -12.1 °C 34428.8 hPa West 26.2 km/h 36.2 km/h 96 % 7.62 mm
20:07 -11.8 °C -12.1 °C 34418.7 hPa SW 31.4 km/h 36.2 km/h 96 % 7.62 mm
20:13 -11.7 °C -12.1 °C 34428.8 hPa WNW 33.6 km/h 49.2 km/h 96 % 7.62 mm
20:19 -11.7 °C -12.2 °C 34428.8 hPa West 28.5 km/h 41.4 km/h 95 % 7.62 mm
20:25 -11.7 °C -12.2 °C 34428.8 hPa WNW 17.9 km/h 33.6 km/h 95 % 7.62 mm
20:31 -11.8 °C -12.2 °C 34428.8 hPa West 15.6 km/h 36.2 km/h 95 % 7.62 mm
20:37 -11.8 °C -12.1 °C 34428.8 hPa NW 12.7 km/h 28.5 km/h 96 % 7.62 mm
20:43 -11.8 °C -12.1 °C 34418.7 hPa West 20.9 km/h 33.6 km/h 96 % 7.62 mm
20:49 -11.8 °C -12.1 °C 34418.7 hPa West 20.9 km/h 38.8 km/h 96 % 7.62 mm
20:55 -11.8 °C -12.1 °C 34418.7 hPa WSW 33.6 km/h 44.1 km/h 96 % 7.62 mm
21:01 -11.8 °C -12.2 °C 34428.8 hPa West 12.7 km/h 33.6 km/h 95 % 0 mm
21:07 -11.8 °C -12.2 °C 34428.8 hPa West 28.5 km/h 36.2 km/h 95 % 0 mm
21:14 -11.8 °C -12.2 °C 34428.8 hPa West 31.4 km/h 44.1 km/h 95 % 0 mm
21:20 -11.8 °C -12.2 °C 34428.8 hPa West 28.5 km/h 33.6 km/h 95 % 0 mm
21:26 -11.8 °C -12.3 °C 34418.7 hPa WSW 26.2 km/h 51.8 km/h 95 % 0 mm
21:32 -11.8 °C -12.3 °C 34418.7 hPa West 20.9 km/h 46.7 km/h 95 % 0 mm
21:38 -11.8 °C -12.3 °C 34418.7 hPa WSW 38.8 km/h 44.1 km/h 95 % 0 mm
21:44 -11.9 °C -12.3 °C 34428.8 hPa West 49.2 km/h 51.8 km/h 95 % 0 mm
21:50 -11.9 °C -12.3 °C 34418.7 hPa WSW 41.7 km/h 41.7 km/h 95 % 0 mm
21:56 -11.9 °C -12.3 °C 34418.7 hPa West 44.1 km/h 54.4 km/h 95 % 0 mm
22:02 -11.9 °C -12.3 °C 34418.7 hPa West 28.5 km/h 44.1 km/h 95 % 0 mm
22:08 -11.9 °C -12.3 °C 34418.7 hPa West 38.8 km/h 51.8 km/h 95 % 0 mm
22:14 -11.9 °C -12.4 °C 34418.7 hPa WSW 31.4 km/h 38.8 km/h 94 % 0 mm
22:20 -11.9 °C -12.4 °C 34418.7 hPa West 26.2 km/h 36.2 km/h 94 % 0 mm
22:26 -11.9 °C -12.3 °C 34428.8 hPa West 26.2 km/h 44.1 km/h 95 % 0 mm
22:32 -11.9 °C -12.4 °C 34428.8 hPa West 38.8 km/h 44.1 km/h 94 % 0 mm
22:38 -11.9 °C -12.4 °C 34418.7 hPa SW 15.6 km/h 46.7 km/h 95 % 0 mm
22:44 -12 °C -12.4 °C 34418.7 hPa West 23 km/h 44.1 km/h 95 % 0 mm
22:50 -12 °C -12.4 °C 34418.7 hPa WSW 33.6 km/h 41.4 km/h 95 % 0 mm
22:56 -12 °C -12.4 °C 34418.7 hPa West 28.5 km/h 41.4 km/h 95 % 0 mm
23:02 -12 °C -12.4 °C 34418.7 hPa West 31.4 km/h 54.4 km/h 95 % 0 mm
23:08 -11.9 °C -12.4 °C 34418.7 hPa West 28.5 km/h 54.4 km/h 94 % 0 mm
23:14 -11.9 °C -12.4 °C 34418.7 hPa WSW 36.5 km/h 46.7 km/h 94 % 0 mm
23:26 -12 °C -12.4 °C 34418.7 hPa West 7.6 km/h 38.8 km/h 95 % 0 mm
23:32 -12.1 °C -12.5 °C 34418.7 hPa WSW 31.4 km/h 38.8 km/h 95 % 0 mm
23:38 -12.1 °C -12.5 °C 34418.7 hPa WSW 26.2 km/h 44.1 km/h 95 % 0 mm
23:44 -12 °C -12.4 °C 34418.7 hPa WSW 17.9 km/h 33.6 km/h 95 % 0 mm
23:50 -12 °C -12.4 °C 34418.7 hPa West 38.8 km/h 46.7 km/h 95 % 7.62 mm
23:56 -11.9 °C -12.4 °C 34418.7 hPa West 23 km/h 44.1 km/h 94 % 7.62 mm
Meteo18
Compliments of Weather Underground - 4 mb

Script developed by  Jim McMurry - jmcmurry@mwt.net Adapted for the template by  Wim van der Kuil - Leuven-Template.eu

You find our weather info also at:

European Weather Network

Weather Underground

Equipment we use:

Weather-station
Davis Vue

Weather-program
Meteobridge

Weather-server
Raspberry PI 2 B+

Provider
1 and 1

Davis Vue

Meteobridge

Raspberry PI 2 B+

1 and 1